Home   Weather   Odesa   Past weeks

Flag for Ukraine Past Weather in Odesa, Ukraine — Yesterday and Last 2 Weeks

Now
46 °F

Partly sunny.


Feels Like: 39 °F
Forecast: 40 / 44 °F
Wind: 20 mph from Northwest

Location: Odesa Airport

Current Time: Dec 9, 2016 at 1:50:50 pm

Latest Report: Dec 9, 2016 at 1:30 pm


Visibility: N/A

Pressure: 30.04 "Hg

Humidity: 71%

Dew Point: 37 °F

Location of OdesaLocation

Past Weather in Odesa — Graph

°F

Odesa Temperature Yesterday

Maximum temperature yesterday: 39 °F (at 11:30 pm)
Minimum temperature yesterday: 12 °F (at 12:30 am)
Average temperature yesterday: 29 °F

High & Low Weather Summary for the Past Weeks

 TemperatureHumidityPressure
High48 °F (Nov 25, 12:00 pm)100% (Nov 25, 5:00 am)30.74 "Hg (Nov 25, 5:00 am)
Low12 °F (Dec 8, 12:30 am)40% (Dec 7, 2:00 pm)29.39 "Hg (Dec 2, 2:00 pm)
Average33 °F80%30.12 "Hg
* Reported Nov 24 12:00 pm — Dec 9 12:30 pm, Odesa, Weather by CustomWeather, © 2016

Note: Actual official high and low records may vary slightly from our data, if they occured in-between our weather recording intervals... More about our weather records

Advertising

Odesa Weather History for the Previous 24 Hours

Scroll right to see more
 ConditionsComfort  
Time TempWeatherWind HumidityBarometerVisibility
12:30 pm
Fri, Dec 9
46 °FPartly sunny.15 mph71%30.04 "HgN/A
12:00 pm46 °FPartly sunny.15 mph71%30.07 "HgN/A
11:30 am46 °FPartly sunny.17 mph71%30.07 "HgN/A
11:00 am45 °FPartly sunny.8 mph76%30.07 "HgN/A
10:30 am45 °FPartly sunny.13 mph76%30.07 "HgN/A
10:00 am45 °FPartly sunny.13 mph71%30.07 "HgN/A
9:30 am45 °FPartly sunny.17 mph71%30.07 "HgN/A
9:00 am45 °FPartly sunny.15 mph76%30.07 "HgN/A
8:30 am46 °FPartly sunny.20 mph71%30.07 "HgN/A
8:00 am46 °FOvercast.20 mph71%30.07 "HgN/A
7:30 am46 °FOvercast.17 mph71%30.07 "HgN/A
6:30 am46 °FOvercast.17 mph71%30.07 "HgN/A
6:00 am46 °FOvercast.15 mph71%30.04 "HgN/A
5:30 am46 °FOvercast.22 mph71%30.04 "HgN/A
5:00 am45 °FOvercast.20 mph71%30.04 "HgN/A
4:30 am45 °FPassing clouds.13 mph71%30.04 "HgN/A
4:00 am43 °FPassing clouds.10 mph71%30.04 "HgN/A
3:30 am41 °FPassing clouds.10 mph70%30.04 "HgN/A
3:00 am43 °FOvercast.10 mph66%30.04 "HgN/A
2:30 am41 °FOvercast.10 mph70%30.04 "HgN/A
2:00 am41 °FOvercast.13 mph70%30.04 "HgN/A
1:30 am41 °FOvercast.13 mph70%30.04 "HgN/A
1:00 am39 °FOvercast.13 mph75%30.04 "HgN/A
12:30 am39 °FSprinkles. Overcast.13 mph75%30.04 "HgN/A
12:00 am39 °FLight rain. Overcast.15 mph70%30.07 "HgN/A
11:30 pm
Thu, Dec 8
39 °FLight rain. Overcast.15 mph65%30.07 "HgN/A
11:00 pm37 °FOvercast.10 mph70%30.09 "HgN/A
10:30 pm37 °FMostly cloudy.13 mph70%30.09 "HgN/A
10:00 pm37 °FMostly cloudy.10 mph70%30.09 "HgN/A
9:30 pm37 °FMostly cloudy.15 mph70%30.09 "HgN/A
9:00 pm37 °FMostly cloudy.13 mph65%30.12 "HgN/A
8:30 pm37 °FMostly cloudy.20 mph65%30.12 "HgN/A
8:00 pm37 °FMostly cloudy.17 mph65%30.15 "HgN/A
7:30 pm37 °FLight rain. Overcast.13 mph70%30.18 "HgN/A
7:00 pm37 °FLight rain. Overcast.17 mph65%30.18 "HgN/A
6:30 pm37 °FPassing clouds.20 mph65%30.21 "HgN/A
6:00 pm37 °FClear.17 mph65%30.21 "Hg10 mi
5:30 pm36 °FClear.13 mph70%30.24 "Hg10 mi
5:00 pm36 °FClear.13 mph70%30.24 "Hg10 mi
4:30 pm36 °FClear.13 mph65%30.27 "Hg10 mi
4:00 pm36 °FSunny.10 mph65%30.27 "Hg10 mi
3:30 pm36 °FSunny.13 mph65%30.30 "Hg10 mi
3:00 pm37 °FSunny.15 mph60%30.30 "Hg10 mi
2:30 pm37 °FSunny.17 mph56%30.33 "Hg10 mi
2:00 pm37 °FSunny.20 mph56%30.33 "Hg10 mi
1:30 pm37 °FSunny.17 mph56%30.36 "Hg10 mi
1:00 pm36 °FSunny.20 mph60%30.36 "Hg10 mi
Weather by CustomWeather, © 2016

See weather overviewHow to use our weather pages